Weather History for Tampa Macdill AFB, FL

Change the Weather History Date:

Sunday, October 27, 2013

  Actual Average Record
Temperature  
Mean Temperature 69 °F -  
Max Temperature 82 °F 80 °F 94 °F (2010)
Min Temperature 56 °F 63 °F 44 °F (2005)
Cooling Degree Days 4    
Growing Degree Days 19 (Base 50)    
Moisture  
Dew Point 57 °F    
Average Humidity 75    
Maximum Humidity 100    
Minimum Humidity 45    
Precipitation  
Precipitation 0.00 in - - ()
Sea Level Pressure  
Sea Level Pressure 30.12 in    
Wind  
Wind Speed 6 mph (ENE)    
Max Wind Speed 13 mph    
Max Gust Speed -    
Visibility 10 miles    
Events      
Averages and records for this station are not official NWS values.
T = Trace of Precipitation, MM = Missing Value Source: NWS Daily Summary

Daily Weather History Graph

Daily Weather History Graph

Search for Another Location

Airport:

Trip Planner

Search our weather history database for the weather conditions in past years. The results will help you decide how hot, cold, wet, or windy it might be!

Date:

Astronomy

Oct. 27, 2013 Rise Set
Actual Time 7:37 AM EDT 6:49 PM EDT
Civil Twilight 7:13 AM EDT 7:13 PM EDT
Nautical Twilight 6:46 AM EDT 7:41 PM EDT
Astronomical Twilight 6:18 AM EDT 8:08 PM EDT
Moon 1:08 AM EDT (10/27) 2:26 PM EDT (10/27)
Length of Visible Light 11h 59m
Length of Day
11h 11m
Last Quarter, 44% of the Moon is Illuminated
Oct 27
Last Quarter
Nov 3
New
Nov 10
First Quarter
Nov 17
Full
Nov 25
Last Quarter

Hourly Weather History & Observations

Time (EDT) Temp. Heat Index Dew Point Humidity Pressure Visibility Wind Dir Wind Speed Gust Speed Precip Events Conditions
12:58 AM 59.9 °F - 54.1 °F 81% 30.14 in 10.0 mi NE 5.8 mph - N/A   Clear
1:58 AM 57.7 °F - 52.3 °F 82% 30.13 in 10.0 mi NE 2.3 mph - N/A   Clear
2:58 AM 56.3 °F - 52.9 °F 88% 30.12 in 10.0 mi NE 4.6 mph - N/A   Clear
3:58 AM 56.8 °F - 55.0 °F 94% 30.11 in 10.0 mi ENE 4.6 mph - N/A   Clear
4:58 AM 56.1 °F - 54.9 °F 96% 30.10 in 10.0 mi East 6.9 mph - N/A   Clear
5:58 AM 56.1 °F - 55.8 °F 99% 30.11 in 10.0 mi ENE 6.9 mph - N/A   Clear
6:58 AM 56.7 °F - 56.3 °F 99% 30.11 in 10.0 mi ENE 6.9 mph - N/A   Clear
7:58 AM 56.1 °F - 55.8 °F 99% 30.14 in 10.0 mi ENE 8.1 mph - N/A   Clear
8:58 AM 61.3 °F - 61.3 °F 100% 30.15 in 10.0 mi ENE 9.2 mph - N/A   Clear
9:58 AM 65.8 °F - 61.3 °F 85% 30.16 in 10.0 mi East 12.7 mph - N/A   Clear
10:58 AM 71.2 °F - 60.3 °F 68% 30.15 in 10.0 mi ENE 12.7 mph - N/A   Clear
11:58 AM 74.7 °F - 60.1 °F 60% 30.15 in 10.0 mi East 10.4 mph - N/A   Clear
12:58 PM 76.6 °F - 58.1 °F 53% 30.14 in 10.0 mi East 6.9 mph - N/A   Clear
1:58 PM 78.6 °F - 56.8 °F 47% 30.11 in 10.0 mi ESE 6.9 mph - N/A   Clear
2:58 PM 81.7 °F 82.0 °F 59.9 °F 47% 30.09 in 10.0 mi West 5.8 mph - N/A   Clear
3:58 PM 81.3 °F 81.6 °F 58.8 °F 46% 30.09 in 10.0 mi Variable 3.5 mph - N/A   Clear
4:58 PM 82.2 °F 82.3 °F 59.2 °F 45% 30.08 in 10.0 mi ENE 4.6 mph - N/A   Clear
5:58 PM 80.1 °F 80.7 °F 58.8 °F 48% 30.08 in 10.0 mi NNE 3.5 mph - N/A   Clear
6:58 PM 73.6 °F - 58.1 °F 58% 30.09 in 10.0 mi North 2.3 mph - N/A   Clear
7:58 PM 65.8 °F - 57.6 °F 75% 30.10 in 10.0 mi NNE 4.6 mph - N/A   Clear
8:58 PM 63.7 °F - 56.5 °F 77% 30.12 in 10.0 mi NE 3.5 mph - N/A   Clear
9:58 PM 61.7 °F - 57.2 °F 85% 30.13 in 10.0 mi ENE 4.6 mph - N/A   Clear
10:58 PM 61.2 °F - 55.4 °F 81% 30.14 in 10.0 mi ENE 5.8 mph - N/A   Clear
11:58 PM 61.7 °F - 58.6 °F 90% 30.14 in 10.0 mi East 9.2 mph - N/A   Clear